SCP
0 0 0 0 0 0 0 0 0 0 0 -0 0 0 -0 0 0 0 0 -0 -0 -0 -0 -0 0 -0 -0 0 0 0 0 0 0 0 -0 0 -0 -0 0 0 0 0 0 0 0 0 0 0 0
1 0 0 0 0 0 0 0 0 0 0 0 0 0 0 0 0 -0 -0 0 -0 0 -0 -0 0 0 0 0 0 0 0 0 -0 -0 -0 0 -0 -0 -0 -0 -0 0 0 -0 0 0 0 0 -0
0 0 0 0 0 0 0 0 0 0 0 0 0 0 0 0 -0 -0 0 0 -0 -0 -0 0 0 -0 0 0 0 0 0 0 -0 0 0 -0 0 0 -0 -0 -0 0 0 0 0 0 0 0 0
0 0 0 0 0 0 0 0 0 0 0 0 -0 0 0 -0 -0 0 -0 0 -0 -0 -0 -0 -0 -0 0 0 0 0 0 0 0 0 -0 0 0 -0 0 -0 0 0 0 0 0 0 0 0 0
0 0 0 0 0 0 0 0 0 0 0 0 0 0 0 -0 -0 -0 0 0 -0 -0 -0 0 -0 -0 0 0 0 0 0 0 -0 -0 -0 0 0 0 0 0 0 0 -0 0 0 0 0 0 0
0 0 0 0 0 0 0 0 0 0 0 0 -0 -0 -0 -0 -0 0 0 -0 -0 -0 -0 0 -0 -0 -0 0 0 0 0 0 0 0 0 0 0 0 0 -0 0 -0 0 0 0 0 0 0 0
0 0 0 0 0 0 0 0 0 0 0 0 0 -0 0 0 0 0 0 0 -0 -0 0 0 0 -0 -0 0 0 0 0 0 0 0 0 -0 -0 -0 -0 -0 0 0 0 -0 -0 -0 -0 -0 -0
0 -0 0 0 0 0 0 0 0 0 0 0 0 -0 0 0 0 0 0 0 -0 -0 0 -0 -0 -0 0 0 0 0 0 0 0 0 0 0 0 0 0 -0 -0 -0 0 0 0 0 -0 -0 -0
-0 -0 0 0 0 0 0 0 0 0 0 0 0 0 -0 -0 -0 -0 -0 -0 0 0 0 0 -0 -0 0 0 0 0 -0 -0 0 0 0 0 -0 -0 0 0 0 0 0 0 0 0 0 -0 -0
-0 0 0 0 0 0 0 0 0 0 0 0 0 -0 -0 -0 -0 -0 -0 -0 -0 -0 0 0 0 0 0 -0 0 0 0 0 -0 -0 -0 -0 -0 -0 -0 0 0 0 -0 0 0 0 0 0 -0
-0 0 0 0 0 0 0 0 0 0 0 0 0 -0 -0 -0 -0 -0 -0 -0 -0 -0 -0 0 0 0 0 -0 -0 -0 0 0 0 -0 -0 -0 -0 -0 -0 -0 -0 -0 0 -0 -0 -0 -0 -0 -0
0 0 0 0 0 0 0 0 0 0 0 0 0 -0 -0 -0 -0 -0 -0 -0 -0 -0 -0 0 0 -0 -0 0 -0 0 0 0 0 0 0 0 -0 -0 -0 -0 -0 -0 -0 -0 -0 -0 -0 -0 -0
-0 0 0 0 0 0 0 0 0 0 0 0 0 0 -0 0 -0 0 0 0 -0 -0 -0 -0 -0 -0 -0 -0 -0 -0 -0 -0 0 0 0 0 0 0 0 0 0 0 -0 0 -0 -0 -0 0 -0
0 -0 0 0 0 0 0 0 0 0 0 0 0 0 0 0 -0 -0 0 0 -0 -0 -0 -0 -0 -0 -0 -0 -0 -0 0 0 0 0 0 0 0 0 0 0 0 -0 -0 -0 -0 -0 -0 -0 0
-0 -0 0 0 0 0 0 0 0 0 0 0 0 0 0 0 0 -0 0 0 0 -0 0 -0 0 0 -0 -0 -0 -0 -0 -0 0 0 0 0 0 0 0 0 -0 -0 0 0 0 -0 -0 -0 -0
-0 0 0 0 0 0 0 0 0 0 0 0 0 0 0 0 0 0 0 0 0 0 0 0 0 0 0 0 -0 -0 -0 -0 0 0 0 0 -0 -0 0 0 -0 -0 0 0 0 0 0 -0 -0
-0 0 0 0 0 0 0 0 0 0 0 0 0 0 0 0 0 0 -0 -0 -0 0 0 0 0 0 0 0 0 -0 -0 -0 -0 0 -0 0 -0 0 0 0 -0 -0 0 0 0 -0 -0 0 -0
0 0 -0 -0 0 0 0 0 0 0 0 0 0 0 0 0 0 0 0 -0 -0 0 0 0 0 0 0 0 0 -0 0 -0 0 0 0 0 0 0 0 0 -0 0 0 0 0 0 0 0 0
0 -0 -0 -0 0 0 0 0 0 0 0 0 0 0 0 0 0 0 0 -0 0 0 0 0 -0 0 -0 0 0 -0 0 0 -0 0 -0 0 0 0 0 -0 0 0 -0 -0 -0 -0 -0 0 -0
-0 -0 0 0 -0 0 0 0 0 0 0 0 0 0 0 0 0 0 0 0 0 0 -0 0 -0 -0 -0 -0 0 0 -0 -0 -0 0 -0 -0 -0 0 0 0 0 -0 -0 0 -0 -0 -0 0 0
-0 -0 -0 -0 0 0 0 0 -0 0 0 0 0 0 0 0 0 0 -0 0 0 -0 -0 -0 -0 0 -0 -0 0 0 -0 0 0 0 0 0 0 -0 0 -0 -0 -0 0 0 0 0 0 -0 0
-0 0 -0 -0 0 0 0 0 0 0 0 0 0 0 0 0 0 -0 -0 0 0 0 0 0 0 0 -0 -0 -0 -0 0 0 0 0 0 0 0 0 0 0 0 0 0 0 0 0 0 0 0
0 0 0 0 0 0 0 0 0 0 -0 -0 0 0 0 0 0 0 -0 0 -0 -0 -0 0 0 -0 -0 0 -0 0 0 0 0 0 0 -0 0 0 -0 0 0 0 0 0 0 0 0 0 0
0 0 0 0 -0 0 0 0 -0 0 -0 0 0 0 0 0 -0 -0 -0 0 -0 -0 -0 -0 -0 0 0 0 0 -0 -0 -0 0 0 0 0 0 0 0 0 0 0 0 0 0 0 0 0 0
0 0 0 0 0 0 0 0 0 0 0 0 0 0 0 0 0 -0 0 0 0 0 0 0 -0 0 0 0 -0 -0 -0 0 0 0 0 0 0 0 0 0 0 0 0 0 0 0 0 0 0
0 0 0 0 0 0 0 0 0 0 0 -0 0 0 0 0 0 -0 0 0 0 0 0 0 -0 0 -0 -0 -0 -0 -0 0 0 0 0 0 -0 -0 -0 -0 0 0 0 0 0 0 0 0 0
0 0 0 0 0 0 0 0 0 -0 0 0 0 0 0 0 -0 -0 -0 0 0 -0 0 0 0 -0 -0 -0 -0 -0 0 0 0 0 0 0 0 0 -0 0 0 -0 0 0 0 0 0 0 0
0 0 0 0 0 0 0 0 -0 0 0 0 1 0 1 0 0 -0 0 0 0 -0 0 0 0 0 -0 0 0 0 0 0 0 0 0 0 0 0 0 0 0 0 0 0 0 0 0 0 0
0 0 0 0 0 0 0 0 0 -0 0 0 1 1 -1 -0 0 -0 -0 -0 0 0 0 -0 -0 0 0 0 0 0 0 0 0 0 0 0 0 0 0 0 0 0 0 0 0 0 0 0 0
0 0 0 0 0 0 0 0 0 0 0 0 0 0 1 0 0 0 0 -0 -0 0 0 0 0 0 0 0 0 0 0 0 0 0 0 0 0 0 0 0 0 0 0 0 0 0 0 0 0
Wind_Speed_500mb
3 7 2 4 7 9 2 3 2 3 5 5 35 16 21 18 2 7 47 46 46 46 42 37 32 31 31 29 27 28 28 27 28 27 31 31 34 33 35 36 37 36 37 39 44 45 46 45 44
8 7 7 1 10 7 5 4 7 6 23 39 29 19 14 7 12 48 59 47 47 46 41 37 33 30 29 26 24 25 25 28 25 28 26 29 31 33 32 33 34 34 36 41 44 45 45 40 39
5 4 4 5 7 7 7 5 18 25 32 8 12 24 10 13 40 64 52 56 50 46 41 36 32 30 28 25 22 22 23 24 25 27 26 26 28 32 32 32 32 34 37 43 45 43 43 43 42
2 2 4 7 5 5 10 15 21 14 20 20 38 15 19 7 52 45 56 55 50 46 40 35 31 27 24 23 22 21 20 21 23 25 26 24 24 24 28 30 31 34 34 40 41 39 41 38 35
2 1 8 5 7 6 15 27 33 10 10 25 21 11 20 38 41 51 58 52 47 44 37 34 30 26 24 22 21 20 19 18 20 23 25 24 23 24 24 24 24 29 32 33 36 35 36 35 31
5 2 7 4 8 10 9 30 25 26 24 33 30 25 10 30 43 50 52 47 41 37 36 32 29 25 22 20 19 18 18 18 17 21 23 19 21 23 24 23 24 23 27 29 29 31 30 29 26
3 4 8 3 11 8 9 26 21 28 24 14 38 9 21 47 47 56 53 49 42 37 33 29 26 23 20 18 18 17 17 17 17 18 21 22 21 20 22 22 22 23 25 27 27 26 24 20 21
6 5 9 5 5 7 20 9 27 41 11 40 49 15 20 56 55 57 51 47 39 34 29 26 22 19 17 17 18 18 17 18 18 17 17 18 20 20 19 18 18 18 20 24 26 25 23 22 20
9 7 4 6 8 10 32 14 29 15 40 8 7 46 60 61 59 57 50 45 40 34 29 27 23 21 14 15 15 16 16 15 18 19 16 18 18 20 19 17 16 15 15 17 20 25 29 28 28
7 8 10 6 9 20 30 35 24 16 21 22 45 53 64 60 57 58 51 46 43 36 31 25 27 23 17 17 13 11 8 10 13 17 16 19 16 17 13 15 15 14 15 16 17 19 23 28 29
7 11 16 9 39 40 28 32 19 33 3 42 56 70 70 67 59 56 50 45 35 36 37 27 29 24 19 18 7 9 6 7 12 19 19 18 19 17 15 12 14 17 17 16 15 16 17 23 31
9 18 22 18 35 37 15 27 28 13 22 50 61 68 75 70 66 62 54 47 37 40 33 31 26 19 18 14 8 5 3 1 1 12 18 14 17 16 18 14 12 14 16 18 18 16 15 22 26
21 13 27 40 41 37 40 21 16 19 51 48 49 58 58 56 59 56 52 49 39 30 31 32 29 22 17 15 10 5 5 1 2 3 8 7 17 13 16 13 15 15 16 16 18 19 18 20 22
7 32 25 33 35 26 27 16 9 26 48 56 49 59 64 65 58 61 54 48 49 33 31 29 34 28 21 14 11 8 4 2 5 1 5 5 8 11 11 16 17 14 16 15 16 16 19 25 28
17 15 11 15 11 6 32 11 5 39 52 54 53 47 57 62 45 49 53 45 46 54 35 29 35 30 26 17 12 11 2 3 6 10 5 4 5 6 11 14 13 15 13 13 14 16 20 22 26
11 9 4 6 6 6 2 8 1 43 56 49 54 47 42 40 44 33 32 46 38 54 51 34 37 32 28 19 17 12 3 7 7 9 8 5 5 6 6 6 9 8 9 7 7 12 16 18 17
9 5 6 7 16 5 3 7 17 47 50 39 44 54 47 37 36 47 28 36 33 53 55 37 39 34 25 23 23 19 12 11 8 10 11 8 7 10 9 6 8 12 13 14 7 9 13 15 14
11 6 9 9 10 7 7 7 16 39 44 44 53 55 51 54 42 32 38 29 39 53 54 42 41 31 30 23 21 20 18 16 14 12 16 12 14 14 12 12 11 16 14 16 18 13 17 19 14
10 4 7 11 6 10 12 7 19 34 29 34 50 60 48 39 46 36 39 43 49 43 48 37 48 38 37 28 20 25 18 14 15 15 16 20 17 18 18 19 18 17 18 19 23 22 20 16 18
10 7 12 11 9 6 9 14 10 25 22 47 50 58 52 43 35 38 30 39 46 52 41 41 40 40 40 36 22 23 18 18 20 20 21 19 21 20 21 21 22 23 18 18 18 20 23 24 19
5 8 5 6 6 3 5 14 9 14 23 32 48 69 65 59 48 31 41 41 31 44 47 39 45 38 38 38 23 23 26 25 22 18 21 23 21 25 30 30 26 24 22 16 22 22 27 28 25
4 13 8 10 7 11 6 9 10 8 9 8 20 61 67 60 49 31 46 53 44 29 35 32 35 35 33 35 29 24 26 25 24 26 26 23 19 11 12 26 33 33 28 19 18 22 27 29 25
17 4 4 9 8 10 3 7 13 11 10 8 4 27 46 48 45 38 49 45 41 31 32 33 36 36 35 28 26 26 27 24 19 22 19 16 20 23 21 24 24 21 16 19 23 26 29 29 27
8 11 18 11 9 4 10 11 9 6 12 10 9 30 39 47 46 42 44 48 36 33 48 48 45 35 32 31 31 27 25 27 25 23 16 16 21 24 17 15 17 19 19 21 22 22 25 29 30
11 11 6 7 5 11 1 6 14 8 17 16 19 34 38 46 51 48 49 55 52 43 49 47 38 27 29 32 40 36 30 31 31 27 19 18 15 15 19 26 21 23 26 28 28 25 24 24 25
8 14 12 9 7 6 5 8 10 8 24 25 38 42 39 51 55 54 52 51 55 46 44 47 42 27 28 32 31 29 29 27 25 22 22 24 25 26 35 34 33 40 41 37 34 31 30 31 28
8 11 12 15 7 5 6 12 17 20 15 23 37 49 43 51 58 56 52 56 50 38 40 35 36 36 33 32 30 29 26 24 25 24 22 22 25 29 34 37 40 41 40 38 34 32 31 32 32
13 7 3 4 8 6 7 9 12 7 7 14 20 37 43 49 53 57 51 48 45 35 32 29 22 25 28 28 24 23 22 21 22 24 23 24 26 30 31 32 30 29 29 29 29 28 28 29 32
5 4 7 10 10 12 7 12 14 19 16 19 28 51 61 58 54 52 53 48 39 37 38 31 31 34 26 22 20 21 21 21 23 23 23 24 23 22 20 18 18 18 18 17 17 18 18 19 21
9 15 16 10 12 1 8 13 6 13 9 34 45 56 57 60 57 52 50 47 46 47 34 37 34 31 21 16 12 14 20 21 20 20 19 20 20 20 18 16 14 15 18 16 15 17 17 18 18
Wind_Direction_500mb
29 352 84 59 50 66 52 102 61 85 78 92 153 145 110 49 108 181 146 152 158 147 143 142 141 137 135 133 131 125 122 117 117 116 119 118 115 112 111 114 112 110 109 105 109 120 124 115 118
251 301 325 46 77 67 325 98 105 119 124 98 85 98 58 79 106 135 146 157 158 149 146 144 142 141 137 134 134 129 125 121 124 123 122 124 121 122 120 118 116 115 113 110 117 121 121 120 121
329 285 340 92 109 155 135 97 125 145 150 112 110 68 84 111 133 143 149 157 157 148 145 146 145 141 138 136 130 132 130 129 127 130 129 123 128 131 132 127 126 125 123 120 122 126 127 127 124
108 265 279 68 113 39 127 164 143 127 86 79 105 66 81 140 139 147 149 156 155 149 148 147 146 142 138 138 136 130 133 140 138 136 132 133 132 130 136 136 134 133 135 135 129 133 131 134 136
316 294 35 52 40 99 133 140 131 107 71 101 103 97 103 150 140 144 151 157 157 153 152 149 146 144 142 139 136 134 132 135 145 147 141 140 136 139 136 138 138 135 139 145 144 137 134 140 127
298 246 63 346 91 100 115 146 120 93 106 102 95 107 105 162 154 150 153 155 159 153 154 152 149 146 143 139 137 135 134 133 140 151 148 144 143 138 140 145 146 147 148 149 154 157 155 149 140
225 87 167 175 102 88 138 148 126 127 121 94 126 79 139 160 152 153 160 161 161 161 159 156 152 147 146 146 145 142 141 144 141 146 154 156 155 147 145 147 152 154 156 160 163 166 169 169 158
196 92 156 138 160 117 147 107 148 128 100 138 131 152 166 163 162 161 165 166 166 164 162 161 153 147 152 158 154 152 152 152 154 150 152 159 158 159 156 154 155 157 167 166 170 176 183 191 198
166 66 104 170 133 117 151 137 152 132 140 147 218 168 159 159 166 164 165 170 174 172 171 166 157 158 149 161 161 157 162 158 161 160 156 164 161 159 157 158 166 172 179 179 175 179 187 195 201
123 113 199 174 135 138 149 143 137 131 150 105 116 148 159 170 171 171 175 176 180 178 171 168 162 156 147 149 148 150 176 172 186 187 185 172 174 171 159 163 173 182 190 197 197 194 189 192 197
98 144 117 105 122 137 138 138 125 127 86 151 141 157 170 177 182 183 184 181 168 170 171 162 161 164 162 165 144 173 147 197 210 203 203 199 193 191 188 188 191 189 194 200 202 206 207 207 206
89 104 119 138 112 114 122 120 126 187 171 152 153 164 177 185 191 194 190 185 177 182 184 176 172 170 163 164 159 154 154 158 78 211 210 214 211 213 199 191 191 191 201 201 199 211 213 218 219
115 105 102 114 106 120 134 120 145 144 153 151 147 165 175 178 183 197 201 199 190 196 198 195 195 188 183 179 174 145 131 158 241 166 210 249 242 244 223 213 200 195 209 206 221 229 231 229 228
112 113 102 96 92 107 114 118 91 151 157 158 158 165 175 183 191 196 204 212 210 200 201 205 207 203 195 202 194 190 188 55 354 189 264 263 216 245 226 221 214 219 227 219 225 239 251 255 250
74 88 59 19 78 119 104 42 45 160 154 163 174 169 179 185 190 203 206 214 225 220 205 209 206 209 208 212 224 183 208 275 72 98 92 148 186 198 223 235 227 226 245 245 245 258 265 265 260
95 49 92 242 114 241 150 181 224 171 170 161 175 185 194 204 215 202 233 215 225 218 210 206 198 209 219 235 227 219 169 125 141 125 139 172 168 155 178 220 248 231 244 269 262 263 275 276 268
2 195 257 301 172 182 200 174 189 178 176 159 168 179 210 226 235 232 236 214 240 212 214 208 205 207 223 239 248 230 234 225 193 195 222 240 218 193 186 207 225 228 255 258 244 245 267 272 276
239 143 239 221 190 162 268 175 178 188 180 171 183 190 202 220 237 226 217 237 235 209 203 232 222 216 223 222 227 208 205 219 214 241 247 250 248 238 225 224 220 242 255 241 258 260 272 271 269
135 142 335 322 135 152 203 213 192 195 198 177 190 199 208 217 243 223 226 242 208 200 213 228 194 212 214 206 199 196 207 231 238 247 258 241 251 241 235 233 244 241 248 260 264 260 275 279 282
65 5 301 282 138 174 146 247 195 157 206 203 197 203 216 227 245 228 232 209 225 218 215 221 221 222 209 207 211 213 222 252 255 252 264 268 262 264 253 249 244 239 244 255 260 266 270 279 281
182 181 242 249 22 71 119 314 289 154 170 195 216 221 224 224 238 240 229 211 217 223 225 228 215 209 206 201 204 206 231 252 260 271 272 277 265 259 264 247 251 255 238 250 255 272 267 282 275
262 179 184 283 130 250 100 269 309 294 261 244 235 210 216 220 233 238 232 217 218 239 210 199 194 201 197 200 212 218 235 252 253 275 280 273 279 228 246 245 252 262 254 261 264 271 268 273 270
252 23 37 252 150 53 349 61 278 349 299 280 143 186 208 216 221 213 213 208 210 231 204 204 208 205 201 208 211 229 238 248 257 265 279 248 243 240 263 255 234 262 274 283 286 277 270 276 283
353 17 28 36 78 358 241 130 284 174 228 249 256 192 196 203 212 210 199 204 197 213 199 209 215 208 208 217 220 235 237 245 258 263 285 271 263 249 251 263 254 271 284 286 292 286 279 274 275
78 57 331 348 16 220 354 102 249 175 203 211 209 205 198 205 207 205 198 201 200 202 195 200 200 199 221 241 228 239 250 255 261 270 271 259 266 266 280 285 281 287 288 284 277 276 275 279 277
178 151 165 207 213 261 3 244 253 173 186 196 178 189 195 201 204 207 199 200 205 195 190 193 186 189 227 225 228 232 244 254 261 258 255 267 263 247 246 262 274 284 288 284 278 276 276 276 275
204 196 218 98 23 58 264 293 310 135 185 157 139 164 180 192 200 206 205 210 207 200 195 184 189 196 217 227 230 242 250 261 269 263 261 265 271 267 272 275 276 279 281 281 276 271 266 268 273
169 172 12 26 146 165 279 286 234 278 178 131 128 144 174 191 199 207 206 201 203 185 183 187 201 215 219 220 228 249 260 262 266 269 273 276 272 272 274 278 283 285 282 282 282 279 276 273 270
64 250 52 124 133 152 160 258 209 214 189 173 169 164 171 176 182 193 195 194 179 183 186 174 207 227 214 217 241 251 264 271 273 272 277 282 284 282 280 280 281 283 289 295 300 299 293 292 286
168 228 175 151 240 189 153 264 228 225 127 175 173 183 180 182 184 188 185 181 185 187 191 208 196 204 191 203 233 268 274 275 273 278 280 287 288 285 281 280 281 294 298 300 301 307 305 307 304
Wind_Speed_850mb
3 7 2 4 7 9 2 3 2 3 5 5 35 16 21 18 2 7 47 46 46 46 42 37 32 31 31 29 27 28 28 27 28 27 31 31 34 33 35 36 37 36 37 39 44 45 46 45 44
8 7 7 1 10 7 5 4 7 6 23 39 29 19 14 7 12 48 59 47 47 46 41 37 33 30 29 26 24 25 25 28 25 28 26 29 31 33 32 33 34 34 36 41 44 45 45 40 39
5 4 4 5 7 7 7 5 18 25 32 8 12 24 10 13 40 64 52 56 50 46 41 36 32 30 28 25 22 22 23 24 25 27 26 26 28 32 32 32 32 34 37 43 45 43 43 43 42
2 2 4 7 5 5 10 15 21 14 20 20 38 15 19 7 52 45 56 55 50 46 40 35 31 27 24 23 22 21 20 21 23 25 26 24 24 24 28 30 31 34 34 40 41 39 41 38 35
2 1 8 5 7 6 15 27 33 10 10 25 21 11 20 38 41 51 58 52 47 44 37 34 30 26 24 22 21 20 19 18 20 23 25 24 23 24 24 24 24 29 32 33 36 35 36 35 31
5 2 7 4 8 10 9 30 25 26 24 33 30 25 10 30 43 50 52 47 41 37 36 32 29 25 22 20 19 18 18 18 17 21 23 19 21 23 24 23 24 23 27 29 29 31 30 29 26
3 4 8 3 11 8 9 26 21 28 24 14 38 9 21 47 47 56 53 49 42 37 33 29 26 23 20 18 18 17 17 17 17 18 21 22 21 20 22 22 22 23 25 27 27 26 24 20 21
6 5 9 5 5 7 20 9 27 41 11 40 49 15 20 56 55 57 51 47 39 34 29 26 22 19 17 17 18 18 17 18 18 17 17 18 20 20 19 18 18 18 20 24 26 25 23 22 20
9 7 4 6 8 10 32 14 29 15 40 8 7 46 60 61 59 57 50 45 40 34 29 27 23 21 14 15 15 16 16 15 18 19 16 18 18 20 19 17 16 15 15 17 20 25 29 28 28
7 8 10 6 9 20 30 35 24 16 21 22 45 53 64 60 57 58 51 46 43 36 31 25 27 23 17 17 13 11 8 10 13 17 16 19 16 17 13 15 15 14 15 16 17 19 23 28 29
7 11 16 9 39 40 28 32 19 33 3 42 56 70 70 67 59 56 50 45 35 36 37 27 29 24 19 18 7 9 6 7 12 19 19 18 19 17 15 12 14 17 17 16 15 16 17 23 31
9 18 22 18 35 37 15 27 28 13 22 50 61 68 75 70 66 62 54 47 37 40 33 31 26 19 18 14 8 5 3 1 1 12 18 14 17 16 18 14 12 14 16 18 18 16 15 22 26
21 13 27 40 41 37 40 21 16 19 51 48 49 58 58 56 59 56 52 49 39 30 31 32 29 22 17 15 10 5 5 1 2 3 8 7 17 13 16 13 15 15 16 16 18 19 18 20 22
7 32 25 33 35 26 27 16 9 26 48 56 49 59 64 65 58 61 54 48 49 33 31 29 34 28 21 14 11 8 4 2 5 1 5 5 8 11 11 16 17 14 16 15 16 16 19 25 28
17 15 11 15 11 6 32 11 5 39 52 54 53 47 57 62 45 49 53 45 46 54 35 29 35 30 26 17 12 11 2 3 6 10 5 4 5 6 11 14 13 15 13 13 14 16 20 22 26
11 9 4 6 6 6 2 8 1 43 56 49 54 47 42 40 44 33 32 46 38 54 51 34 37 32 28 19 17 12 3 7 7 9 8 5 5 6 6 6 9 8 9 7 7 12 16 18 17
9 5 6 7 16 5 3 7 17 47 50 39 44 54 47 37 36 47 28 36 33 53 55 37 39 34 25 23 23 19 12 11 8 10 11 8 7 10 9 6 8 12 13 14 7 9 13 15 14
11 6 9 9 10 7 7 7 16 39 44 44 53 55 51 54 42 32 38 29 39 53 54 42 41 31 30 23 21 20 18 16 14 12 16 12 14 14 12 12 11 16 14 16 18 13 17 19 14
10 4 7 11 6 10 12 7 19 34 29 34 50 60 48 39 46 36 39 43 49 43 48 37 48 38 37 28 20 25 18 14 15 15 16 20 17 18 18 19 18 17 18 19 23 22 20 16 18
10 7 12 11 9 6 9 14 10 25 22 47 50 58 52 43 35 38 30 39 46 52 41 41 40 40 40 36 22 23 18 18 20 20 21 19 21 20 21 21 22 23 18 18 18 20 23 24 19
5 8 5 6 6 3 5 14 9 14 23 32 48 69 65 59 48 31 41 41 31 44 47 39 45 38 38 38 23 23 26 25 22 18 21 23 21 25 30 30 26 24 22 16 22 22 27 28 25
4 13 8 10 7 11 6 9 10 8 9 8 20 61 67 60 49 31 46 53 44 29 35 32 35 35 33 35 29 24 26 25 24 26 26 23 19 11 12 26 33 33 28 19 18 22 27 29 25
17 4 4 9 8 10 3 7 13 11 10 8 4 27 46 48 45 38 49 45 41 31 32 33 36 36 35 28 26 26 27 24 19 22 19 16 20 23 21 24 24 21 16 19 23 26 29 29 27
8 11 18 11 9 4 10 11 9 6 12 10 9 30 39 47 46 42 44 48 36 33 48 48 45 35 32 31 31 27 25 27 25 23 16 16 21 24 17 15 17 19 19 21 22 22 25 29 30
11 11 6 7 5 11 1 6 14 8 17 16 19 34 38 46 51 48 49 55 52 43 49 47 38 27 29 32 40 36 30 31 31 27 19 18 15 15 19 26 21 23 26 28 28 25 24 24 25
8 14 12 9 7 6 5 8 10 8 24 25 38 42 39 51 55 54 52 51 55 46 44 47 42 27 28 32 31 29 29 27 25 22 22 24 25 26 35 34 33 40 41 37 34 31 30 31 28
8 11 12 15 7 5 6 12 17 20 15 23 37 49 43 51 58 56 52 56 50 38 40 35 36 36 33 32 30 29 26 24 25 24 22 22 25 29 34 37 40 41 40 38 34 32 31 32 32
13 7 3 4 8 6 7 9 12 7 7 14 20 37 43 49 53 57 51 48 45 35 32 29 22 25 28 28 24 23 22 21 22 24 23 24 26 30 31 32 30 29 29 29 29 28 28 29 32
5 4 7 10 10 12 7 12 14 19 16 19 28 51 61 58 54 52 53 48 39 37 38 31 31 34 26 22 20 21 21 21 23 23 23 24 23 22 20 18 18 18 18 17 17 18 18 19 21
9 15 16 10 12 1 8 13 6 13 9 34 45 56 57 60 57 52 50 47 46 47 34 37 34 31 21 16 12 14 20 21 20 20 19 20 20 20 18 16 14 15 18 16 15 17 17 18 18
Wind_Direction_850mb
29 352 84 59 50 66 52 102 61 85 78 92 153 145 110 49 108 181 146 152 158 147 143 142 141 137 135 133 131 125 122 117 117 116 119 118 115 112 111 114 112 110 109 105 109 120 124 115 118
251 301 325 46 77 67 325 98 105 119 124 98 85 98 58 79 106 135 146 157 158 149 146 144 142 141 137 134 134 129 125 121 124 123 122 124 121 122 120 118 116 115 113 110 117 121 121 120 121
329 285 340 92 109 155 135 97 125 145 150 112 110 68 84 111 133 143 149 157 157 148 145 146 145 141 138 136 130 132 130 129 127 130 129 123 128 131 132 127 126 125 123 120 122 126 127 127 124
108 265 279 68 113 39 127 164 143 127 86 79 105 66 81 140 139 147 149 156 155 149 148 147 146 142 138 138 136 130 133 140 138 136 132 133 132 130 136 136 134 133 135 135 129 133 131 134 136
316 294 35 52 40 99 133 140 131 107 71 101 103 97 103 150 140 144 151 157 157 153 152 149 146 144 142 139 136 134 132 135 145 147 141 140 136 139 136 138 138 135 139 145 144 137 134 140 127
298 246 63 346 91 100 115 146 120 93 106 102 95 107 105 162 154 150 153 155 159 153 154 152 149 146 143 139 137 135 134 133 140 151 148 144 143 138 140 145 146 147 148 149 154 157 155 149 140
225 87 167 175 102 88 138 148 126 127 121 94 126 79 139 160 152 153 160 161 161 161 159 156 152 147 146 146 145 142 141 144 141 146 154 156 155 147 145 147 152 154 156 160 163 166 169 169 158
196 92 156 138 160 117 147 107 148 128 100 138 131 152 166 163 162 161 165 166 166 164 162 161 153 147 152 158 154 152 152 152 154 150 152 159 158 159 156 154 155 157 167 166 170 176 183 191 198
166 66 104 170 133 117 151 137 152 132 140 147 218 168 159 159 166 164 165 170 174 172 171 166 157 158 149 161 161 157 162 158 161 160 156 164 161 159 157 158 166 172 179 179 175 179 187 195 201
123 113 199 174 135 138 149 143 137 131 150 105 116 148 159 170 171 171 175 176 180 178 171 168 162 156 147 149 148 150 176 172 186 187 185 172 174 171 159 163 173 182 190 197 197 194 189 192 197
98 144 117 105 122 137 138 138 125 127 86 151 141 157 170 177 182 183 184 181 168 170 171 162 161 164 162 165 144 173 147 197 210 203 203 199 193 191 188 188 191 189 194 200 202 206 207 207 206
89 104 119 138 112 114 122 120 126 187 171 152 153 164 177 185 191 194 190 185 177 182 184 176 172 170 163 164 159 154 154 158 78 211 210 214 211 213 199 191 191 191 201 201 199 211 213 218 219
115 105 102 114 106 120 134 120 145 144 153 151 147 165 175 178 183 197 201 199 190 196 198 195 195 188 183 179 174 145 131 158 241 166 210 249 242 244 223 213 200 195 209 206 221 229 231 229 228
112 113 102 96 92 107 114 118 91 151 157 158 158 165 175 183 191 196 204 212 210 200 201 205 207 203 195 202 194 190 188 55 354 189 264 263 216 245 226 221 214 219 227 219 225 239 251 255 250
74 88 59 19 78 119 104 42 45 160 154 163 174 169 179 185 190 203 206 214 225 220 205 209 206 209 208 212 224 183 208 275 72 98 92 148 186 198 223 235 227 226 245 245 245 258 265 265 260
95 49 92 242 114 241 150 181 224 171 170 161 175 185 194 204 215 202 233 215 225 218 210 206 198 209 219 235 227 219 169 125 141 125 139 172 168 155 178 220 248 231 244 269 262 263 275 276 268
2 195 257 301 172 182 200 174 189 178 176 159 168 179 210 226 235 232 236 214 240 212 214 208 205 207 223 239 248 230 234 225 193 195 222 240 218 193 186 207 225 228 255 258 244 245 267 272 276
239 143 239 221 190 162 268 175 178 188 180 171 183 190 202 220 237 226 217 237 235 209 203 232 222 216 223 222 227 208 205 219 214 241 247 250 248 238 225 224 220 242 255 241 258 260 272 271 269
135 142 335 322 135 152 203 213 192 195 198 177 190 199 208 217 243 223 226 242 208 200 213 228 194 212 214 206 199 196 207 231 238 247 258 241 251 241 235 233 244 241 248 260 264 260 275 279 282
65 5 301 282 138 174 146 247 195 157 206 203 197 203 216 227 245 228 232 209 225 218 215 221 221 222 209 207 211 213 222 252 255 252 264 268 262 264 253 249 244 239 244 255 260 266 270 279 281
182 181 242 249 22 71 119 314 289 154 170 195 216 221 224 224 238 240 229 211 217 223 225 228 215 209 206 201 204 206 231 252 260 271 272 277 265 259 264 247 251 255 238 250 255 272 267 282 275
262 179 184 283 130 250 100 269 309 294 261 244 235 210 216 220 233 238 232 217 218 239 210 199 194 201 197 200 212 218 235 252 253 275 280 273 279 228 246 245 252 262 254 261 264 271 268 273 270
252 23 37 252 150 53 349 61 278 349 299 280 143 186 208 216 221 213 213 208 210 231 204 204 208 205 201 208 211 229 238 248 257 265 279 248 243 240 263 255 234 262 274 283 286 277 270 276 283
353 17 28 36 78 358 241 130 284 174 228 249 256 192 196 203 212 210 199 204 197 213 199 209 215 208 208 217 220 235 237 245 258 263 285 271 263 249 251 263 254 271 284 286 292 286 279 274 275
78 57 331 348 16 220 354 102 249 175 203 211 209 205 198 205 207 205 198 201 200 202 195 200 200 199 221 241 228 239 250 255 261 270 271 259 266 266 280 285 281 287 288 284 277 276 275 279 277
178 151 165 207 213 261 3 244 253 173 186 196 178 189 195 201 204 207 199 200 205 195 190 193 186 189 227 225 228 232 244 254 261 258 255 267 263 247 246 262 274 284 288 284 278 276 276 276 275
204 196 218 98 23 58 264 293 310 135 185 157 139 164 180 192 200 206 205 210 207 200 195 184 189 196 217 227 230 242 250 261 269 263 261 265 271 267 272 275 276 279 281 281 276 271 266 268 273
169 172 12 26 146 165 279 286 234 278 178 131 128 144 174 191 199 207 206 201 203 185 183 187 201 215 219 220 228 249 260 262 266 269 273 276 272 272 274 278 283 285 282 282 282 279 276 273 270
64 250 52 124 133 152 160 258 209 214 189 173 169 164 171 176 182 193 195 194 179 183 186 174 207 227 214 217 241 251 264 271 273 272 277 282 284 282 280 280 281 283 289 295 300 299 293 292 286
168 228 175 151 240 189 153 264 228 225 127 175 173 183 180 182 184 188 185 181 185 187 191 208 196 204 191 203 233 268 274 275 273 278 280 287 288 285 281 280 281 294 298 300 301 307 305 307 304